timestamp,gas_concentrations,,corrected_fluxes_and_quality_flags,,,,,,,,,,storage_terms,,,turbulence,,,footprint,,
ISOdate,CO2_1_1_1,H2O_1_1_1,Tau_1_1_1,QcTau_1_1_1,H_1_1_1,QcH_1_1_1,LE_1_1_1, QcLE_1_1_1,Fc_1_1_1, QcFc_1_1_1,E_1_1_1, QcE_1_1_1,Sa_1_1_1,Sw_1_1_1,Sc_1_1_1,ustar_1_1_1,MO_length_1_1_1,ZL_1_1_1,Fetchmax_1_1_1,Fetch70_1_1_1,Fetch90_1_1_1
yyyymmddHHMM,[µmol+1mol_a-1],[mmol+1mol_a-1],[kg+1m-1s-2],[#],[W+1m-2],[#],[W+1m-2],[#],[µmol+1s-1m-2],[#],[mmol+1s-1m-2],[#],[W+1m-2],[W+1m-2],[µmol+1s-1m-2],[m+1s-1],[m],[#],[m],[m],[m]
201205070030,392.14435898904310,10.481474161367702,0.27617332697428254,0,-21.289317572686102,0,18.943461233770321,0,2.0029550089628421,0,0.42349473653645625,0,-9999.,-9999.,-9999.,0.48328412392926007,447.96973468976506,4.82175431225477027E-002,110.03853388906985,201.18553493959058,301.41259214391260
201205070100,391.93692346655820,10.492955473324406,0.30615160892423438,0,-22.086373003859652,0,20.743716547497865,0,2.8516881216091257,0,0.46374443197385207,0,0.19364831038613881,0.40917034754387360,-0.16526766994386055,0.50891253040121553,504.11434547769892,4.28474218077087923E-002,117.99879243217426,215.73942635063366,323.21697354390096
201205070130,391.82166407420527,10.604028826431094,0.20798980202344580,0,-14.526247425166458,0,10.042432900463492,0,2.5856335923366904,0,0.22452004868507328,0,1.3476584481664986,3.9577345384591704,-9.18183096010333766E-002,0.41949902154559965,429.33789167145420,5.03100248522418969E-002,116.83940880143284,213.61970330719453,320.04124216071773
201205070200,391.47123945072940,10.704869893927947,0.15221127051511585,0,-10.360917803441605,0,5.4807011297080255,0,3.3744171706196808,0,0.12253134335885341,0,-0.28650752366331234,3.5923248612919467,-0.27908973267275383,0.35891657270919147,376.93100850166502,5.73049165837057617E-002,110.44890789865883,201.93582951119669,302.53667013375019
201205070230,390.72802774776216,10.803201300036665,0.15646369083824771,0,-7.1181076996871981,0,4.4762933114105747,0,2.1549148420858790,0,0.10008121208517427,0,1.2850040047697484,3.5015620999001773,-0.59171985669529037,0.36396348854964716,572.07545599882610,3.77572569728359814E-002,118.72850129595933,217.07356688233830,325.21575917262965
201205070300,391.41175954325246,10.815203006033597,7.04779203355104106E-002,0,-3.2199642793760463,0,5.7984673672917841,2,0.41739201917888535,2,0.12963564428154722,2,-1.2772827644561278,0.42740694243623906,0.54437174784957387,0.24427299909378092,382.26448244908499,5.65053804151866845E-002,114.87359166681175,210.02556261988897,314.65656447295078
201205070330,397.20542286376684,10.825573662204366,6.00189796248019672E-002,0,-4.9981149513402103,1,-13.743454439244847,0,-5.1867002119886134,1,-0.30724913720668695,0,-0.92094499471515734,0.36923631452049899,4.6115422356741735,0.22545118156594307,193.55889886650857,0.11159393924273581,106.66910667611728,195.02514737062089,292.18320899600468
201205070400,407.69021671925850,10.854073588202091,4.69877894233012572E-002,0,-3.3690236742365509,0,-5.5258606983961984,1,1.0795732760219039,0,-0.12353888625671268,1,0.50288301100014787,1.0143726414231840,8.3429077266890257,0.19951280048193532,198.97549853852689,0.10855607930952199,63.408299902548272,472.00000000000000,1975.0000000000000
201205070430,416.16637355935609,10.851352602112350,4.20833414165955599E-002,1,-1.5958851891584984,1,-3.6671870389478474,0,-5.7528061023719470,2,-8.19840979854248031E-002,0,-0.40222667714602517,-9.68281330445905225E-002,6.7432736249077587,0.18883218309780334,356.07137661176853,6.06619948099644535E-002,32.865408572222634,219.00000000000000,840.00000000000000
201205070500,423.93865068533950,10.821072902078427,5.32129849009818565E-002,0,0.86888497648654606,2,1.2059026259628542,1,3.6109306200272573,0,2.69582394070874976E-002,1,-0.96710612178433886,-1.0778125073962852,6.1847081813075553,0.21231352049092936,-929.61588700478785,-2.32354032476735778E-002,120.47310853887993,220.26326533633892,329.99450869588162
201205070530,417.08006270204964,10.767997893972478,7.86043499314234007E-002,0,-2.0847505267175932,2,0.49259289027361347,2,2.9976059792871061,0,1.10112495193277204E-002,2,-1.7254714290891808,-1.8895387984778895,-5.4581934468722393,0.25802757373039470,695.37873577039443,3.10622095397695003E-002,127.64505874206118,233.37587768395264,349.63959142342105
201205070600,419.91127965797818,10.762666761166820,0.11853473955438344,0,-3.1408239328280207,0,-5.9828207029044629,1,1.2757758452083192,1,-0.13373614069438888,1,-0.31711794564781226,-0.18972540057068255,2.2522776438449719,0.31691874749258442,854.95568808327346,2.52644672713097859E-002,125.96976748683078,230.31291096265005,345.05070912929608
201205070630,420.91663160625183,10.795721977066153,3.82813502682096407E-002,0,-1.8221372521343098,0,0.31297662535525805,1,2.0119025793645129,0,6.99639509932414860E-003,1,1.0983011629969006,1.1763043009755438,0.79976102215136846,0.18010459278907984,270.51231090598645,7.98484916551795709E-002,76.110270126141302,547.00000000000000,2226.0000000000000
201205070700,419.98116278485577,10.805450511983105,4.58047598913045445E-002,1,-1.6645675838475233,0,-2.78855125105040846E-002,2,2.8545223619028164,0,-6.23371181248463671E-004,2,0.31711002724594317,0.34618931487593002,-0.74415537760200401,0.19701131639109890,387.59324266448129,5.57285257387677563E-002,60.342725967769212,407.00000000000000,1582.0000000000000
201205070730,419.19790125293889,10.792849231500538,8.88905206505158363E-002,0,-0.25516734088405846,1,-7.4108717102382915,0,2.4785532399770287,1,-0.16566425673327012,0,-0.47944843112050689,-0.44834739825934689,-0.62296879690682117,0.27447320827278593,6835.9920945303302,3.15974619357485336E-003,119.98205309735044,219.36545937512267,328.64943176431348
201205070800,416.84902745937256,10.837820901044305,0.12156497991636601,0,-0.22504850878357194,2,-5.7500531617587551,1,5.3674706033172894,1,-0.12854507129613199,1,1.3450280412667035,1.5993483493867269,-1.8674427979468098,0.32104515380603249,12402.067800685145,1.74164505041705399E-003,121.22567749565859,221.63920140888854,332.05591166094086
201205070830,415.00716212169544,10.925912367043699,0.10570444627614139,0,0.91044113686759187,1,3.9111516268398767,1,0.84721831874986286,1,8.74453535592614739E-002,1,2.7118886288572788,3.1308671204966134,-1.4635944647032118,0.29945263503097219,-2487.6002418540838,-8.68306717316479591E-003,126.22959504209130,230.78795860141480,345.76241705717922
201205070900,412.72010140509235,11.011406056845106,0.22672180575309522,1,13.078872294911363,0,6.3356993773131940,1,3.11942751240577021E-002,1,0.14166865993851518,1,2.6335149017217256,3.0368770663097555,-1.8165613463016657,0.43866245087801670,-544.33441074505026,-3.96814891243698828E-002,130.57539229051287,238.73346199247314,357.66622899726849
201205070930,406.33808261452828,11.023893102900187,0.22814636592110413,0,12.290290618028486,0,32.307253501522332,0,0.70374048683016099,1,0.72241357589475141,0,0.37066650969517950,0.44351253183397232,-5.0686245196460273,0.44005989271099188,-584.80062453625942,-3.69356650689772539E-002,113.79085536241061,208.04597533441085,311.69078199127154
201205071000,399.27922379901094,11.075046762673166,0.19305000353104240,0,21.856975379315056,1,29.400705673989417,0,-6.4165423205522725,1,0.65748280345800458,0,2.2770519932515985,1.8158770096263368,-5.6036481586415006,0.40489459071003542,-256.12017481149769,-8.43354101874146389E-002,107.98728138340348,197.43519114580022,295.79389373869867
201205071030,394.59099957160481,11.135362289369228,0.28225345525029144,0,50.170530945154987,1,86.288538907691063,0,-8.2251544933603284,1,1.9300332752346581,0,4.7423193852941008,2.1385167360329174,-3.7179503427221055,0.48983774975533950,-197.52999045514562,-0.10935048369227178,120.99073108527489,221.20964443839281,331.41235704360969
201205071100,391.65504124827009,11.258061094306967,0.18953018334323049,1,51.371093002185241,0,78.732490689757938,0,-4.3030797041977049,0,1.7615079760229757,0,6.6240249840130332,4.3441176748225878,-2.3256360887021450,0.40163689039497991,-106.33462271929929,-0.20313233307856268,109.67255518920123,200.51640915331112,300.41011978538347
201205071130,391.84774661261042,11.548450552530001,8.85811239304542392E-002,0,16.094511075286984,1,26.032462304668961,1,-4.9877391596840139,1,0.58272926740840247,1,12.276869537930674,10.255453239461488,0.15234191106305311,0.27486667139252480,-108.78624688010490,-0.19855451051460316,84.430074014748314,154.36510288995771,231.26705313378835
201205071200,391.48472182266801,11.828052238278254,0.13911640360795327,0,48.463795693721558,0,77.843873521447136,0,-1.3039483733081814,0,1.7438405438261477,0,18.313145605238223,9.8383097068386469,-0.28615366953759669,0.34498085967044467,-71.425387145574760,-0.30241348158150311,95.321815878772924,174.27868076029486,261.10122151254495
201205071230,390.38932242985226,11.825493732049015,0.24153641066561868,0,28.765012113768382,0,53.532940533818476,0,-1.3078791575941948,0,1.1992651252536373,0,0.65144680155219892,-9.00054147128031973E-002,-0.86327419553404205,0.45461138612421492,-275.36611983786219,-7.84410224929568550E-002,119.17915614424273,217.89750767399238,326.45017262019752
201205071300,390.45458252632358,11.954242931218046,0.22980168686686317,0,56.564529262041646,0,60.163225331224766,0,-1.9865005028014431,0,1.3482679485364757,0,8.3418080228186273,4.5210268013797776,5.13553101677368951E-002,0.44376754758759812,-130.23597051124383,-0.16585279715894757,117.17279732664099,214.22924386009157,320.95444498178881
201205071330,390.05686021571114,12.148098796067964,0.17891741457779881,0,31.203739798813501,0,55.551711001884350,0,-2.8571148419353687,0,1.2454444375793927,0,10.024630437412327,6.7931744013335100,-0.31246450587157876,0.39190398935236626,-162.60176405650665,-0.13283988722590773,104.30924255724300,190.71056312126069,285.71917557027439
201205071400,389.54489178167688,12.070341884876660,0.24426078041883492,1,84.773409854101260,1,78.110100243683874,0,-3.5375863713682003,1,1.7526248268252462,0,19.490545274217322,-2.7139173211803334,-0.40094293169453893,0.45863216961577974,-95.911806010582254,-0.22520689473428124,116.44930818771427,212.90647496910753,318.97269614304378
201205071430,389.61136146236538,11.840762968517053,0.36456481760400644,1,165.42017018573765,0,195.78889994920823,0,-5.2907182586641106,0,4.4010623276821823,0,42.911425226130994,-7.9434744732821851,5.16977387917064643E-002,0.56221418057214656,-90.525579427533557,-0.23860659204386503,114.62570042601563,209.57233837085744,313.97755195963020
201205071500,389.38228746176424,11.352470423086448,0.23444626359285081,1,158.22106468443920,1,118.31929872195975,1,-3.8353706289138048,1,2.6616157356900851,1,17.377929737779656,-16.835396969413829,-0.17766784561826701,0.45144335591571916,-48.992903063136914,-0.44088018160842984,116.57668025437603,213.13935173020235,319.32158796686571
201205071530,389.10921631210084,11.293476671416308,0.31628080954840654,1,267.19139239108733,0,194.86299867252268,0,-4.4499190104166040,0,4.3878090460887842,0,23.147299840730334,-2.0246507505449527,-0.21102711398859408,0.52528918742823827,-45.703608597113835,-0.47261038379722237,105.60770637409981,193.08456910226900,289.27586913035424
201205071600,388.47252815242462,11.029627502764091,0.77830316204745109,0,230.69087364944320,1,188.83259341693855,0,-5.2830268964710090,1,4.2538826412575430,0,10.248040759583175,-9.0357749782954873,-0.49118488806883426,0.82468252179889601,-204.80966149236201,-0.10546377471946328,148.32868137347072,271.19213655726435,406.29523824023943
201205071630,388.55732871725490,10.524768594874539,0.60261105761938327,0,244.96746821201464,0,239.61689045651977,1,-5.8731281748042559,0,5.4029077446497782,1,21.543731480808464,-17.212456128228428,6.51901066889357811E-002,0.72687035341842154,-132.03502228764441,-0.16359295909340935,111.77081317269408,204.35269395219652,306.15757347673133
201205071700,388.93817833138360,10.195611024117076,0.29969628599493459,0,119.81576882601811,0,74.811312561738490,0,-2.8234482627896558,0,1.6869077720700032,0,0.74730420235176198,-11.219068534791260,0.29270526688375192,0.51263106380071355,-94.681237774173468,-0.22813389968051209,111.47053127195311,203.80368286764181,305.33505482915029
201205071730,389.06798529526526,9.9231723910754059,0.19418859190225080,0,91.485839033716715,1,73.058832253544793,0,-2.0312034164816799,1,1.6475653848663259,0,2.4573023214685707,-9.2802511830590397,9.97146486474666111E-002,0.41272584278001784,-64.705128603605800,-0.33382207046253065,104.80979792660524,191.62573798040182,287.09027427596163
201205071800,389.01390937380444,9.8061636735090136,0.16784303778168294,0,66.749668729280970,0,87.407631460516043,1,-0.18858970938327824,0,1.9721112004417487,1,11.337655955856871,-3.9758687783513862,-4.14571839958811153E-002,0.38408237563399322,-71.458272166902518,-0.30227431121689674,94.734377319583118,173.20465572017679,259.49213628946143
201205071830,389.61451286605609,10.044862026859576,0.27505604395274175,0,15.633237399986561,1,45.770736204709877,0,-1.1966406948943948,1,1.0320551400009950,0,-14.304925429291094,8.1328353953992814,0.46141893845885545,0.49118730871747018,-638.11697481192186,-3.38495931821377605E-002,113.11021168639681,206.80154161449113,309.82639351331801
201205071900,390.46438494633003,10.321905881540458,0.22992069042707533,0,38.914033252220122,1,52.131523024745384,1,-1.2172011583740880,0,1.1740657027993335,1,-28.165014862163929,9.4919316466626018,0.65577013097186898,0.44812910452413496,-194.68233935764874,-0.11094997148312916,102.50378059372979,187.40960282939906,280.77373553934524
201205071930,390.39123351996943,9.8076852783436106,0.31449366451948463,0,39.635063740216950,0,76.360014946604736,1,-1.8367125381686089,0,1.7194194556832567,1,-4.1059532014284565,-17.631193540565633,-5.64769025370117916E-002,0.52390517596107855,-305.38322626591935,-7.07308003262474977E-002,133.10361300528749,243.35585579372139,364.59141722197131
201205072000,390.12222303112731,9.1483798105442400,3.89799159772792198E-002,1,-3.6046813669609978,1,8.7200226258555542,1,-0.26220483739131351,1,0.19626413915344271,1,-10.395620443419453,-22.649827958047538,-0.20800356847975379,0.18428335376072241,146.10879006045539,0.14783504805605860,152.22741544131065,1269.0000000000000,5789.0000000000000
201205072030,390.06218735340752,9.3535087134296244,3.42249337989920452E-002,0,9.60678517167116441E-002,2,12.121015894015063,0,0.66940242370647063,0,0.27272793986080679,0,-7.1785743486305869,7.0564698714978293,-4.64687150044780159E-002,0.17259532652575621,-4503.8508694074180,-4.79589591802846802E-003,151.78036490747306,819.00000000000000,2696.0000000000000
201205072100,390.78861326798113,9.5645977880288058,3.12792946402156505E-002,0,-4.7996053979187545,1,8.2614100671941877,0,0.40942675121930838,1,0.18580770018273213,0,-9.8112137353108011,7.2747487827610495,0.56305795904083877,0.16489152325319606,78.603729490624190,0.27479612150688648,193.90566947287624,1808.0000000000000,9007.0000000000000
201205072130,391.59584176276280,9.7395923542419389,5.83219760737139839E-002,0,-14.127665444004379,0,15.196956378650109,0,1.5731066497946333,0,0.34161432670492986,0,-12.496339787512884,6.0460548772166378,0.62693636883397830,0.22494056798537426,67.797800626893064,0.31859440572224140,113.85704490405209,208.16699092660303,311.87208540030360
201205072200,391.79727949358346,9.7591626084322964,1.75472077198512606E-002,0,-6.1405313586296622,0,3.2464225252945842,2,0.72178288118651057,1,7.29644889321703488E-002,2,-3.9675816585724983,0.67685987847605256,0.15658480917507797,0.12332933233537426,25.713361487190042,0.84003019250364264,236.23490676008066,2227.0000000000000,-9999.
201205072230,392.29139866585939,9.7609552185983990,5.78752485818773560E-002,1,7.8865114178650790,2,1.7667053128927368,2,-3.37469872134433246E-002,2,3.96938488079926141E-002,2,-8.0296783262043263,6.21090176822637965E-002,0.38464457077314940,0.22382026565647556,-119.68362183483643,-0.18047582174449928,172.38061293210950,315.16673841658462,472.17720504711809
201205072300,391.34835097500820,9.6537680279941416,1.14025237673268760E-003,2,-4.4975072240048801,1,2.4221811824020523,2,0.62363871804178606,1,5.44130685581493898E-002,2,-3.4072887764318138,-3.7161818119561856,-0.73448733847037706,3.14074917022926087E-002,0.57987789037672144,37.249221531739074,2915.6053989158536,-9999.,-9999.
201205072330,381.81061219176303,9.6398684074726066,1.37814430328000795E-002,1,1.4297552239998803,2,-10.834463803625932,1,4.8776354653909904,1,-0.24334410486272734,1,-4.5382452773015149,-0.48228929003664583,-7.4329892533988229,0.10915540631393246,-76.569214935902110,-0.28209770751968488,231.67196469156798,776.00000000000000,1830.0000000000000
201205080000,374.24379040685017,9.4966899007876879,2.12557961233114760E-002,1,2.3884200503470003,2,-10.565959212661687,2,18.494182458832316,1,-0.23729303149034514,2,-2.0385443070764979,-4.9697870008246747,-5.8986076199976338,0.13553948520814424,-87.749073527858258,-0.24615644509503012,220.19785127240547,751.00000000000000,1795.0000000000000
